| time (UTC) | temp F | wind direction | speed MPH | gust MPH | rain 1hr in | rain 24hr in | rain mn in | humidity % | barometer mb |
| 20260504150718 | 57 | 114 | 3.0 | 4.0 | 0.00 | 0.02 | 0.00 | 85 | 1019.5 |
| 20260504140717 | 57 | 98 | 3.0 | 4.0 | 0.00 | 0.02 | 0.00 | 85 | 1019.1 |
| 20260504130718 | 58 | 114 | 2.0 | 4.0 | 0.00 | 0.02 | 0.00 | 87 | 1019.2 |
| 20260504110519 | 58 | 118 | 3.0 | 4.0 | 0.00 | 0.02 | 0.00 | 88 | 1020.1 |
| 20260504100519 | 59 | 101 | 2.0 | 3.0 | 0.00 | 0.02 | 0.00 | 89 | 1020.6 |
| 20260504081541 | 59 | 124 | 2.0 | 4.0 | 0.00 | 0.02 | 0.02 | 89 | 1021.1 |
| 20260504081519 | 59 | 109 | 2.0 | 3.0 | 0.00 | 0.02 | 0.00 | 89 | 1021.1 |
| 20260504080601 | 59 | 102 | 2.0 | 3.0 | 0.00 | 0.02 | 0.00 | 89 | 1021.2 |
| 20260504050518 | 65 | 34 | 1.0 | 2.0 | 0.00 | 0.02 | 0.02 | 91 | 1019.5 |
| 20260504045518 | 65 | 48 | 1.0 | 2.0 | 0.00 | 0.02 | 0.02 | 91 | 1019.5 |
| 20260504044542 | 64 | 0 | 0.0 | 1.0 | 0.00 | 0.02 | 0.02 | 90 | 1019.2 |
| 20260504044539 | 65 | 0.0 | 0.0 | 0.00 | 0.02 | 0.02 | 91 | 1019.3 | |
| 20260504043519 | 65 | 0.0 | 1.0 | 0.00 | 0.02 | 0.02 | 90 | 1019.2 | |
| 20260504043043 | 65 | 0 | 0.0 | 2.0 | 0.00 | 0.02 | 0.02 | 90 | 1019.1 |
| 20260504042519 | 65 | 0.0 | 1.0 | 0.00 | 0.02 | 0.02 | 90 | 1019.1 | |
| 20260504041544 | 65 | 0 | 0.0 | 2.0 | 0.00 | 0.02 | 0.02 | 90 | 1018.9 |
| 20260504041540 | 65 | 16 | 0.0 | 1.0 | 0.00 | 0.02 | 0.02 | 90 | 1019.0 |
| 20260504040519 | 65 | 339 | 1.0 | 1.0 | 0.00 | 0.02 | 0.02 | 90 | 1018.7 |
| 20260504040044 | 64 | 0 | 0.0 | 2.0 | 0.00 | 0.02 | 0.02 | 89 | 1018.6 |
| 20260504035517 | 65 | 352 | 0.0 | 2.0 | 0.00 | 0.02 | 0.02 | 90 | 1018.6 |
| 20260504034552 | 64 | 147 | 0.0 | 6.0 | 0.01 | 0.02 | 0.02 | 89 | 1018.4 |
| 20260504034519 | 64 | 103 | 1.0 | 2.0 | 0.01 | 0.02 | 0.02 | 90 | 1018.4 |
| 20260504033519 | 64 | 107 | 2.0 | 4.0 | 0.01 | 0.02 | 0.02 | 92 | 1018.3 |
| 20260504033042 | 64 | 93 | 2.0 | 6.0 | 0.01 | 0.02 | 0.02 | 91 | 1018.3 |
| 20260504032517 | 64 | 120 | 2.0 | 4.0 | 0.01 | 0.02 | 0.02 | 93 | 1018.3 |
| 20260504031543 | 64 | 155 | 2.0 | 6.0 | 0.01 | 0.02 | 0.02 | 94 | 1018.4 |
| 20260504031519 | 64 | 172 | 2.0 | 6.0 | 0.01 | 0.02 | 0.02 | 94 | 1018.4 |
| 20260504030540 | 64 | 187 | 2.0 | 4.0 | 0.02 | 0.02 | 0.02 | 94 | 1018.4 |
| 20260504030042 | 63 | 196 | 1.0 | 6.0 | 0.02 | 0.02 | 0.02 | 93 | 1018.3 |
| 20260504025519 | 64 | 167 | 2.0 | 4.0 | 0.02 | 0.02 | 0.02 | 94 | 1018.4 |
| 20260504024540 | 64 | 200 | 2.0 | 2.0 | 0.01 | 0.01 | 0.01 | 94 | 1018.5 |
| 20260504023539 | 64 | 163 | 1.0 | 3.0 | 0.01 | 0.01 | 0.01 | 93 | 1018.4 |
| 20260504023045 | 64 | 169 | 2.0 | 6.0 | 0.01 | 0.01 | 0.01 | 93 | 1018.3 |
| 20260504022518 | 64 | 186 | 1.0 | 3.0 | 0.01 | 0.01 | 0.01 | 94 | 1018.4 |
| 20260504021546 | 64 | 206 | 2.0 | 5.0 | 0.01 | 0.01 | 0.01 | 93 | 1018.5 |
| 20260504021540 | 65 | 214 | 1.0 | 3.0 | 0.01 | 0.01 | 0.01 | 93 | 1018.5 |
| 20260504020519 | 65 | 218 | 4.0 | 5.0 | 0.00 | 0.00 | 0.00 | 92 | 1018.3 |
| 20260504020044 | 65 | 331 | 3.0 | 8.0 | 0.00 | 0.00 | 0.00 | 91 | 1018.4 |
| 20260504015540 | 66 | 217 | 4.0 | 6.0 | 0.00 | 0.00 | 0.00 | 91 | 1018.4 |
| 20260504014542 | 66 | 352 | 1.0 | 9.0 | 0.00 | 0.00 | 0.00 | 89 | 1018.3 |
| 20260504014519 | 66 | 249 | 1.0 | 1.0 | 0.00 | 0.00 | 0.00 | 89 | 1018.4 |
| 20260504013519 | 66 | 272 | 1.0 | 4.0 | 0.00 | 0.00 | 0.00 | 89 | 1018.4 |
| 20260504013055 | 66 | 215 | 1.0 | 10.0 | 0.00 | 0.00 | 0.00 | 90 | 1018.4 |
| 20260504012540 | 66 | 211 | 4.0 | 7.0 | 0.00 | 0.00 | 0.00 | 89 | 1018.4 |
| 20260504011536 | 67 | 200 | 2.0 | 8.0 | 0.00 | 0.00 | 0.00 | 86 | 1018.3 |
| 20260504011518 | 67 | 210 | 4.0 | 6.0 | 0.00 | 0.00 | 0.00 | 87 | 1018.3 |
| 20260504010738 | 67 | 232 | 2.0 | 6.0 | 0.00 | 0.00 | 0.00 | 84 | 1018.3 |
| 20260504010045 | 67 | 0 | 4.0 | 10.0 | 0.00 | 0.00 | 0.00 | 85 | 1018.4 |
| 20260504005717 | 67 | 225 | 3.0 | 5.0 | 0.00 | 0.00 | 0.00 | 86 | 1018.4 |
| 20260504004716 | 68 | 235 | 3.0 | 6.0 | 0.00 | 0.00 | 0.00 | 86 | 1018.5 |
| 20260504004543 | 67 | 184 | 2.0 | 10.0 | 0.00 | 0.00 | 0.00 | 86 | 1018.5 |
| 20260504003716 | 68 | 224 | 5.0 | 8.0 | 0.00 | 0.00 | 0.00 | 85 | 1018.3 |
| 20260504003041 | 68 | 229 | 3.0 | 8.0 | 0.00 | 0.00 | 0.00 | 85 | 1018.3 |
| 20260504002717 | 68 | 208 | 4.0 | 8.0 | 0.00 | 0.00 | 0.00 | 84 | 1018.4 |
| 20260504001717 | 68 | 220 | 3.0 | 7.0 | 0.00 | 0.00 | 0.00 | 84 | 1018.4 |
| 20260504001543 | 68 | 215 | 4.0 | 11.0 | 0.00 | 0.00 | 0.00 | 84 | 1018.4 |
| 20260504000717 | 69 | 217 | 6.0 | 11.0 | 0.00 | 0.00 | 0.00 | 85 | 1018.5 |
| 20260504000041 | 69 | 202 | 4.0 | 12.0 | 0.00 | 0.00 | 0.00 | 84 | 1018.5 |
| 20260503235717 | 69 | 217 | 4.0 | 9.0 | 0.00 | 0.00 | 0.00 | 85 | 1018.6 |
| 20260503234717 | 70 | 207 | 6.0 | 9.0 | 0.00 | 0.00 | 0.00 | 83 | 1018.6 |
| 20260503234545 | 70 | 227 | 3.0 | 11.0 | 0.00 | 0.00 | 0.00 | 84 | 1018.6 |
| 20260503233717 | 69 | 226 | 4.0 | 9.0 | 0.00 | 0.00 | 0.00 | 83 | 1018.7 |
| 20260503233045 | 69 | 200 | 4.0 | 11.0 | 0.00 | 0.00 | 0.00 | 82 | 1018.7 |
| 20260503232738 | 70 | 210 | 4.0 | 11.0 | 0.00 | 0.00 | 0.00 | 85 | 1018.7 |
| 20260503231716 | 70 | 231 | 2.0 | 5.0 | 0.00 | 0.00 | 0.00 | 83 | 1018.7 |
| 20260503231542 | 69 | 283 | 3.0 | 9.0 | 0.00 | 0.00 | 0.00 | 83 | 1018.7 |
| 20260503230719 | 70 | 232 | 3.0 | 6.0 | 0.00 | 0.00 | 0.00 | 82 | 1018.8 |
| 20260503230042 | 70 | 296 | 2.0 | 8.0 | 0.00 | 0.00 | 0.00 | 81 | 1018.7 |
| 20260503225738 | 71 | 219 | 5.0 | 8.0 | 0.00 | 0.00 | 0.00 | 81 | 1018.9 |
| 20260503224717 | 70 | 228 | 4.0 | 9.0 | 0.00 | 0.00 | 0.00 | 81 | 1018.8 |
| 20260503224540 | 69 | 222 | 3.0 | 9.0 | 0.00 | 0.00 | 0.00 | 82 | 1018.8 |
| 20260503223759 | 69 | 235 | 2.0 | 4.0 | 0.00 | 0.00 | 0.00 | 86 | 1018.9 |
| 20260503223045 | 69 | 175 | 2.0 | 8.0 | 0.00 | 0.00 | 0.00 | 80 | 1019.1 |
| 20260503222717 | 70 | 231 | 4.0 | 6.0 | 0.00 | 0.00 | 0.00 | 83 | 1019.3 |
| 20260503221716 | 69 | 310 | 2.0 | 4.0 | 0.00 | 0.00 | 0.00 | 86 | 1019.4 |
| 20260503221557 | 69 | 327 | 1.0 | 5.0 | 0.00 | 0.00 | 0.00 | 86 | 1019.4 |
| 20260503220737 | 68 | 222 | 2.0 | 4.0 | 0.00 | 0.00 | 0.00 | 89 | 1019.5 |
| 20260503220044 | 67 | 200 | 1.0 | 5.0 | 0.00 | 0.00 | 0.00 | 91 | 1019.5 |
| 20260503215738 | 66 | 222 | 2.0 | 3.0 | 0.00 | 0.00 | 0.00 | 90 | 1019.5 |
| 20260503214717 | 66 | 224 | 2.0 | 3.0 | 0.00 | 0.00 | 0.00 | 91 | 1019.7 |
| 20260503214542 | 65 | 236 | 1.0 | 7.0 | 0.00 | 0.00 | 0.00 | 90 | 1019.8 |
| 20260503213738 | 66 | 212 | 3.0 | 7.0 | 0.00 | 0.00 | 0.00 | 90 | 1019.8 |
| 20260503213045 | 65 | 0 | 2.0 | 5.0 | 0.00 | 0.00 | 0.00 | 90 | 1019.8 |
| 20260503212716 | 66 | 200 | 3.0 | 5.0 | 0.00 | 0.00 | 0.00 | 90 | 1019.9 |
| 20260503211715 | 66 | 233 | 2.0 | 4.0 | 0.00 | 0.00 | 0.00 | 91 | 1020.1 |
| 20260503211549 | 66 | 208 | 2.0 | 6.0 | 0.00 | 0.00 | 0.00 | 90 | 1020.1 |
| 20260503210716 | 66 | 279 | 2.0 | 3.0 | 0.00 | 0.00 | 0.00 | 91 | 1020.0 |
| 20260503210118 | 66 | 225 | 4.0 | 6.0 | 0.00 | 0.00 | 0.00 | 90 | 1020.1 |
| 20260503210044 | 66 | 232 | 3.0 | 6.0 | 0.00 | 0.00 | 0.00 | 89 | 1020.0 |
| 20260503205117 | 66 | 224 | 3.0 | 5.0 | 0.00 | 0.00 | 0.00 | 89 | 1020.2 |
| 20260503204549 | 65 | 0 | 1.0 | 4.0 | 0.00 | 0.00 | 0.00 | 89 | 1020.1 |
| 20260503203418 | 65 | 242 | 0.0 | 1.0 | 0.00 | 0.00 | 0.00 | 91 | 1020.2 |
| 20260503203117 | 65 | 225 | 1.0 | 2.0 | 0.00 | 0.00 | 0.00 | 92 | 1020.2 |
| 20260503203044 | 65 | 235 | 0.0 | 3.0 | 0.00 | 0.00 | 0.00 | 91 | 1020.2 |
| 20260503202917 | 65 | 305 | 0.0 | 3.0 | 0.00 | 0.00 | 0.00 | 92 | 1020.2 |
| 20260503202118 | 65 | 216 | 2.0 | 3.0 | 0.00 | 0.00 | 0.00 | 92 | 1020.2 |
| 20260503201937 | 65 | 217 | 1.0 | 3.0 | 0.00 | 0.00 | 0.00 | 91 | 1020.3 |
| 20260503201541 | 65 | 281 | 1.0 | 4.0 | 0.00 | 0.00 | 0.00 | 91 | 1020.2 |
| 20260503201118 | 65 | 265 | 2.0 | 4.0 | 0.00 | 0.00 | 0.00 | 91 | 1020.4 |
| 20260503200919 | 65 | 173 | 2.0 | 4.0 | 0.00 | 0.00 | 0.00 | 91 | 1020.4 |
| 20260503200118 | 66 | 277 | 1.0 | 1.0 | 0.00 | 0.00 | 0.00 | 90 | 1020.2 |
| 20260503200040 | 65 | 293 | 1.0 | 4.0 | 0.00 | 0.00 | 0.00 | 90 | 1020.2 |
| 20260503195922 | 66 | 310 | 2.0 | 4.0 | 0.00 | 0.00 | 0.00 | 90 | 1020.2 |
| 20260503194919 | 66 | 264 | 1.0 | 6.0 | 0.00 | 0.00 | 0.00 | 90 | 1020.1 |
| 20260503194546 | 66 | 26 | 1.0 | 9.0 | 0.00 | 0.00 | 0.00 | 89 | 1020.0 |
| 20260503193919 | 68 | 342 | 6.0 | 9.0 | 0.00 | 0.00 | 0.00 | 85 | 1020.0 |
| 20260503193048 | 67 | 0 | 0.0 | 3.0 | 0.00 | 0.00 | 0.00 | 88 | 1020.1 |
| 20260503192919 | 67 | 62 | 1.0 | 2.0 | 0.00 | 0.00 | 0.00 | 87 | 1020.0 |
| 20260503191918 | 66 | 206 | 1.0 | 2.0 | 0.00 | 0.00 | 0.00 | 87 | 1019.9 |
| 20260503191604 | 66 | 212 | 1.0 | 4.0 | 0.00 | 0.00 | 0.00 | 87 | 1019.9 |
| 20260503190919 | 66 | 207 | 2.0 | 4.0 | 0.00 | 0.00 | 0.00 | 88 | 1019.9 |
| 20260503190041 | 65 | 319 | 2.0 | 3.0 | 0.00 | 0.00 | 0.00 | 89 | 1019.9 |
| 20260503185918 | 66 | 328 | 2.0 | 3.0 | 0.00 | 0.00 | 0.00 | 88 | 1019.9 |
| 20260503184918 | 66 | 246 | 1.0 | 4.0 | 0.00 | 0.00 | 0.00 | 86 | 1019.9 |
| 20260503184738 | 66 | 217 | 1.0 | 4.0 | 0.00 | 0.00 | 0.00 | 86 | 1019.9 |
| 20260503184055 | 67 | 271 | 1.0 | 3.0 | 0.00 | 0.00 | 0.00 | 87 | 1019.9 |
| 20260503183044 | 66 | 319 | 1.0 | 3.0 | 0.00 | 0.00 | 0.00 | 85 | 1019.7 |
| 20260503182918 | 66 | 336 | 2.0 | 3.0 | 0.00 | 0.00 | 0.00 | 85 | 1019.6 |
| 20260503181918 | 66 | 15 | 1.0 | 2.0 | 0.00 | 0.00 | 0.00 | 84 | 1019.7 |
| 20260503181746 | 66 | 322 | 0.0 | 3.0 | 0.00 | 0.00 | 0.00 | 85 | 1019.8 |
| 20260503180045 | 64 | 294 | 0.0 | 2.0 | 0.00 | 0.00 | 0.00 | 78 | 1019.6 |
| 20260503175937 | 64 | 192 | 0.0 | 1.0 | 0.00 | 0.00 | 0.00 | 78 | 1019.7 |
| 20260503174917 | 63 | 0.0 | 0.0 | 0.00 | 0.00 | 0.00 | 83 | 1019.7 | |
| 20260503174547 | 62 | 140 | 0.0 | 3.0 | 0.00 | 0.00 | 0.00 | 82 | 1019.7 |
| 20260503173937 | 62 | 121 | 2.0 | 3.0 | 0.00 | 0.00 | 0.00 | 82 | 1019.7 |
| 20260503173038 | 60 | 0 | 0.0 | 2.0 | 0.00 | 0.00 | 0.00 | 82 | 1019.5 |
| 20260503172917 | 61 | 0.0 | 0.0 | 0.00 | 0.00 | 0.00 | 83 | 1019.5 | |
| 20260503171917 | 60 | 120 | 1.0 | 2.0 | 0.00 | 0.00 | 0.00 | 84 | 1019.4 |
| 20260503171542 | 59 | 77 | 1.0 | 5.0 | 0.00 | 0.00 | 0.00 | 84 | 1019.2 |